Weather History for Calgary Springbank, AB

Change the Weather History Date:

Wednesday, October 3, 2012

  Actual Average Record
Temperature  
Mean Temperature 34 °F -  
Max Temperature 41 °F 47 °F 71 °F (2003)
Min Temperature 23 °F 25 °F 17 °F (2014)
Degree Days  
Heating Degree Days 30    
Moisture  
Dew Point 27 °F    
Average Humidity 79    
Maximum Humidity 93    
Minimum Humidity 53    
Precipitation  
Precipitation 0.12 in - - ()
Sea Level Pressure  
Sea Level Pressure 30.61 in    
Wind  
Wind Speed 11 mph ()    
Max Wind Speed 18 mph    
Max Gust Speed 28 mph    
Visibility 16.7 miles    
Events Snow    
Averages and records for this station are not official NWS values.
T = Trace of Precipitation, MM = Missing Value Source: Averaged Metar Reports

Daily Weather History Graph

Daily Weather History Graph

Search for Another Location

Airport:

Trip Planner

Search our weather history database for the weather conditions in past years. The results will help you decide how hot, cold, wet, or windy it might be!

Date:

Astronomy

Oct. 03, 2012 Rise Set
Actual Time 7:42 AM MDT 7:09 PM MDT
Civil Twilight 7:09 AM MDT 7:42 PM MDT
Nautical Twilight 6:30 AM MDT 8:20 PM MDT
Astronomical Twilight 5:51 AM MDT 8:59 PM MDT
Moon 8:35 PM MDT (10/3) 11:37 AM MDT (10/3)
Length of Visible Light 12h 33m
Length of Day
11h 27m
Waning Gibbous, 88% of the Moon is Illuminated
Oct 3
Waning Gibbous
Oct 8
Last Quarter
Oct 15
New
Oct 21
First Quarter
Oct 29
Full

Hourly Weather History & Observations

Time (MDT) Temp. Windchill Dew Point Humidity Pressure Visibility Wind Dir Wind Speed Gust Speed Precip Events Conditions
5:25 AM 32.0 °F 22.5 °F 30.2 °F 93% 30.55 in 10.0 mi NNW 12.7 mph - N/A Snow Light Snow
5:45 AM 30.2 °F 18.1 °F 26.6 °F 86% 30.56 in 15.0 mi NNW 18.4 mph - N/A   Mostly Cloudy
6:00 AM 30 °F - 26 °F 81% 30.57 in 15 mi NNW 18.4 mph - - Snow Light Snow
6:00 AM 30.2 °F 18.5 °F 26.6 °F 86% 30.57 in 15.0 mi NNW 17.3 mph 24.2 mph N/A   Mostly Cloudy
7:00 AM 30.2 °F 18.1 °F 26.6 °F 86% 30.60 in 15.0 mi NNW 18.4 mph 27.6 mph N/A   Mostly Cloudy
8:13 AM 30.2 °F 20.2 °F 26.6 °F 86% 30.62 in 10.0 mi NNW 12.7 mph - N/A Snow Light Snow
9:00 AM 30.2 °F 21.9 °F 28.4 °F 93% 30.63 in 10.0 mi NW 9.2 mph - N/A   Overcast
10:00 AM 32.0 °F 23.0 °F 28.4 °F 87% 30.64 in 15.0 mi NW 11.5 mph - N/A   Overcast
11:00 AM 32.0 °F 23.0 °F 28.4 °F 87% 30.66 in 20.0 mi NNW 11.5 mph - N/A   Overcast
12:00 PM 35 °F - 29 °F 69% 30.66 in 19 mi NNW 12.7 mph - -   Partly Cloudy
12:00 PM 35.6 °F 27.5 °F 28.4 °F 75% 30.65 in 20.0 mi NNW 11.5 mph - N/A   Mostly Cloudy
1:00 PM 37.4 °F 29.3 °F 28.4 °F 70% 30.65 in 20.0 mi NW 12.7 mph - N/A   Mostly Cloudy
2:00 PM 39.2 °F 35.0 °F 26.6 °F 61% 30.63 in 20.0 mi NW 5.8 mph - N/A   Mostly Cloudy
3:00 PM 41.0 °F 36.4 °F 26.6 °F 57% 30.61 in 30.0 mi WNW 6.9 mph - N/A   Mostly Cloudy
4:00 PM 39.2 °F 31.6 °F 28.4 °F 65% 30.62 in 20.0 mi ENE 12.7 mph - N/A   Mostly Cloudy
4:13 PM 35.6 °F 25.9 °F 30.2 °F 81% 30.63 in 15.0 mi ENE 16.1 mph - N/A Snow Light Snow Grains
4:40 PM 35.6 °F 28.0 °F 30.2 °F 81% 30.63 in 20.0 mi NE 10.4 mph - N/A   Mostly Cloudy
5:00 PM 35.6 °F 29.9 °F 28.4 °F 75% 30.63 in 20.0 mi ENE 6.9 mph - N/A   Mostly Cloudy
6:00 PM 37 °F - 26 °F 53% 30.63 in 19 mi East 3.5 mph - -   Partly Cloudy
6:00 PM 37.4 °F 34.9 °F 26.6 °F 65% 30.62 in 20.0 mi East 3.5 mph - N/A   Mostly Cloudy
7:00 PM 30.2 °F 25.4 °F 26.6 °F 86% 30.64 in 20.0 mi SSW 4.6 mph - N/A   Scattered Clouds
8:00 PM 32.0 °F 28.7 °F 28.4 °F 87% 30.64 in 15.0 mi South 3.5 mph - N/A   Scattered Clouds
9:00 PM 28.4 °F - 26.6 °F 93% 30.64 in 15.0 mi South 2.3 mph - N/A   Partly Cloudy
10:00 PM 23.0 °F 17.0 °F 19.4 °F 86% 30.46 in 15.0 mi SSE 4.6 mph - N/A   Clear